Home   Weather   Denmark   Copenhagen   Past weeks
Flag for Denmark

Past Weather in Copenhagen, Denmark — Yesterday and Last 2 Weeks

Currently: 45 °F. Scattered clouds. (Weather station: Koebenhavn-Kastrup Airport, Denmark). See more current weather

Past Weather in Copenhagen — Graph

°F

Copenhagen Temperature Yesterday

Maximum temperature yesterday: 54 °F (at 2:50 pm)
Minimum temperature yesterday: 37 °F (at 1:50 am)
Average temperature yesterday: 45 °F

High & Low Weather Summary for the Past Weeks

 TemperatureHumidityPressure
High54 °F (Apr 16, 2:50 pm)100% (Apr 5, 2:20 pm)30.45 "Hg (Apr 5, 2:20 pm)
Low28 °F (Apr 14, 4:50 am)32% (Apr 14, 2:50 pm)29.24 "Hg (Apr 5, 1:20 pm)
Average41 °F69%29.96 "Hg
* Reported Apr 2 7:20 am — Apr 17 7:20 am, Copenhagen. Weather by CustomWeather, © 2021

Note: Actual official high and low records may vary slightly from our data, if they occured in-between our weather recording intervals... More about our weather records

Copenhagen Weather History for the Previous 24 Hours

Scroll right to see more
 ConditionsComfort  
Time TempWeatherWind HumidityBarometerVisibility
7:20 am
Sat, Apr 17
45 °FLight rain. Partly sunny.10 mph57%30.27 "HgN/A
6:50 am45 °FPartly sunny.10 mph49%30.27 "HgN/A
6:20 am45 °FOvercast.13 mph49%30.27 "HgN/A
5:50 am45 °FLight rain. Passing clouds.14 mph57%30.27 "HgN/A
5:20 am45 °FPassing clouds.13 mph57%30.27 "HgN/A
4:50 am45 °FPassing clouds.13 mph57%30.27 "HgN/A
4:20 am45 °FPassing clouds.14 mph53%30.27 "HgN/A
3:50 am45 °FPassing clouds.14 mph53%30.27 "HgN/A
3:20 am45 °FPassing clouds.15 mph57%30.27 "HgN/A
2:50 am45 °FPassing clouds.15 mph53%30.27 "HgN/A
2:20 am46 °FOvercast.14 mph50%30.27 "HgN/A
1:50 am46 °FPassing clouds.13 mph46%30.27 "HgN/A
1:20 am46 °FOvercast.14 mph40%30.30 "HgN/A
12:50 am46 °FOvercast.12 mph46%30.30 "HgN/A
12:20 am46 °FMostly cloudy.12 mph46%30.30 "HgN/A
11:50 pm
Fri, Apr 16
46 °FPartly cloudy.13 mph43%30.30 "HgN/A
11:20 pm46 °FPassing clouds.12 mph57%30.30 "HgN/A
10:50 pm46 °FPartly cloudy.10 mph62%30.30 "HgN/A
10:20 pm46 °FOvercast.8 mph62%30.30 "HgN/A
9:50 pm48 °FOvercast.10 mph58%30.30 "HgN/A
9:20 pm46 °FOvercast.12 mph62%30.30 "HgN/A
8:50 pm48 °FOvercast.8 mph50%30.30 "HgN/A
8:20 pm48 °FPassing clouds.9 mph50%30.30 "HgN/A
7:50 pm48 °FMostly cloudy.13 mph50%30.30 "HgN/A
7:20 pm48 °FOvercast.13 mph50%30.30 "HgN/A
6:50 pm48 °FPartly sunny.16 mph50%30.30 "HgN/A
6:20 pm48 °FMostly cloudy.17 mph54%30.30 "HgN/A
5:50 pm48 °FMostly cloudy.14 mph54%30.30 "HgN/A
5:20 pm50 °FOvercast.14 mph47%30.30 "HgN/A
4:50 pm52 °FScattered clouds.14 mph47%30.30 "HgN/A
4:20 pm52 °FPassing clouds.13 mph44%30.30 "HgN/A
3:50 pm52 °FCool.16 mph44%30.30 "HgN/A
3:20 pm52 °FCool.15 mph44%30.30 "HgN/A
2:50 pm54 °FCool.10 mph38%30.33 "HgN/A
2:20 pm50 °FCool.10 mph40%30.33 "HgN/A
1:50 pm50 °FCool.10 mph40%30.33 "HgN/A
1:20 pm50 °FCool.12 mph43%30.33 "HgN/A
12:50 pm48 °FCool.10 mph43%30.33 "HgN/A
12:20 pm48 °FCool.10 mph46%30.33 "HgN/A
11:50 am46 °FCool.12 mph50%30.36 "HgN/A
11:20 am46 °FCool.12 mph53%30.36 "HgN/A
10:50 am45 °FQuite cool.14 mph66%30.36 "HgN/A
10:20 am45 °FQuite cool.15 mph66%30.39 "HgN/A
9:50 am43 °FQuite cool.14 mph66%30.36 "HgN/A
9:20 am43 °FQuite cool.13 mph66%30.39 "HgN/A
8:50 am41 °FQuite cool.14 mph61%30.39 "HgN/A
8:20 am41 °FQuite cool.13 mph66%30.39 "HgN/A
Weather by CustomWeather, © 2021

See weather overview